[[{"header":{"parameterUnit":"m.s-1","parameterCategory":2,"la1":30.2991,"la2":30.254,"lo1":-89.0895,"lo2":-89.0444,"dy":0.0017,"dx":0.0017,"nx":28,"ny":28,"refTime":"2026-03-02T09:00:00:Z","depth":"0","parameterNumber":2,"parameterNumberName":"U-component_of_CURRENTS"},"data":[0,0,0,0,0,0,0,0,0,0,0,0,0,0,0,0,0,0,0,0,0,0,0,0,0,0,0,0,0,0,0,0,0,0,0,0,0,0,0,0,0,0,0,0,0,0,0,0,0,0,0,0,0,0,0,0,0,0,0.1786,0.1786,0,0.1765,0.1764,0.1764,0.1736,0.1735,0.1735,0.1735,0.1692,0.1691,0.169,0,0,0,0,0,0,0,0,0,0,0,0,0,0.1804,0.1803,0.1786,0.1786,0.1786,0.1765,0.1764,0.1764,0.1736,0.1735,0.1735,0.1735,0.1692,0.1691,0.169,0,0,0,0,0,0,0,0,0,0,0,0,0,0.1788,0.1803,0.1786,0.1772,0.177,0.1765,0.1764,0.1763,0.1736,0.1735,0.1735,0.1735,0.1692,0.1691,0.1689,0.1686,0,0,0.1685,0.1684,0,0,0,0,0,0,0,0,0.1789,0.1787,0.1774,0.1773,0.1771,0.1755,0.1755,0.1738,0.1736,0.1746,0.1735,0.1735,0.1713,0.171,0.1703,0.1684,0.1682,0.1685,0.1684,0.1683,0.1683,0,0,0,0,0,0,0,0.179,0.1788,0.1775,0.1774,0.1772,0.1767,0.1764,0.1751,0.1729,0.1745,0.1744,0.1746,0.1712,0.1704,0.1701,0.1682,0.1685,0.1684,0.1683,0.1682,0.1685,0.1686,0,0,0,0,0,0,0.1799,0.1789,0.1775,0.1774,0.1783,0.1767,0.1764,0.1758,0.1729,0.1726,0.1746,0.1745,0.1707,0.1703,0.17,0.1714,0.1683,0.1682,0.1681,0.1684,0.1685,0.1686,0,0,0,0,0,0,0.1799,0.1797,0.1776,0.1784,0.1781,0.1767,0.1761,0.1758,0.1755,0.1731,0.1726,0.1748,0.1706,0.1702,0.1696,0.1712,0.1681,0.168,0.1683,0.1684,0.1686,0.173,0,0,0,0,0,0,0.1799,0.1797,0.1797,0.1784,0.1781,0.1776,0.1762,0.1758,0.1758,0.1756,0.1731,0.1726,0.1706,0.1699,0.1695,0.1709,0.1679,0.1682,0.1684,0.1685,0.1728,0.1733,0.1738,0,0,0,0,0,0.18,0.1799,0.1797,0.1796,0.178,0.1777,0.1775,0.1762,0.1759,0.1758,0.1746,0.1727,0.1707,0.1698,0.1693,0.1707,0.1681,0.1683,0.1685,0.1725,0.1732,0.1738,0,0,0,0,0,0,0.1803,0.1796,0.1793,0.1789,0.1787,0.1773,0.1773,0.1769,0.1759,0.1757,0.1734,0.1729,0.1733,0.1716,0.1706,0.1715,0.1693,0.1695,0.1726,0.1732,0.1737,0.1749,0.1678,0,0,0,0,0,0.1806,0.1804,0.1799,0.1796,0.1796,0.1788,0.1786,0.178,0.1771,0.1766,0.1751,0.174,0.1738,0.1731,0.1722,0.1722,0.1733,0.1731,0.1736,0.174,0.1748,0.1787,0.1796,0.1693,0.1693,0.1693,0,0,0.1806,0.1804,0.1802,0.1798,0.1793,0.1794,0.1785,0.1786,0.1789,0.1764,0.1761,0.1756,0.1743,0.1746,0.1746,0.1733,0.1777,0.1743,0.1747,0.1753,0.179,0.18,0.1809,0.1695,0.1694,0.1694,0,0,0.1807,0.1805,0.1804,0.1805,0.1806,0.1802,0.1807,0.18,0.1799,0.18,0.1791,0.18,0.178,0.1783,0.178,0.181,0.1805,0.1805,0.1835,0.1872,0.1881,0.1889,0.1922,0.1932,0.1803,0.1804,0.1804,0,0.181,0.1804,0.1804,0.1805,0.1809,0.1809,0.1813,0.1814,0.1807,0.1815,0.1804,0.1813,0.1801,0.1823,0.1833,0.1822,0.184,0.1811,0.1879,0.1887,0.1895,0.1927,0.1938,0.1806,0.1806,0.1805,0.1805,0,0.1809,0.1807,0.1808,0.181,0.1816,0.1819,0.1826,0.1831,0.1835,0.1839,0.1863,0.1859,0.1865,0.1868,0.1856,0.1905,0.19,0.1885,0.1865,0.1908,0.1938,0.1949,0.1809,0.1809,0.1808,0.1807,0,0,0.1801,0.1806,0.1804,0.1806,0.1819,0.182,0.1839,0.1854,0.1873,0.1878,0.1909,0.1916,0.1925,0.1925,0.1922,0.1955,0.2023,0.1944,0.1944,0.1978,0.211,0.2066,0.2074,0.2021,0.2023,0.2025,0.2112,0,0.1798,0.1798,0.1806,0.181,0.1812,0.1828,0.1846,0.1866,0.1887,0.1917,0.1938,0.1964,0.1943,0.1959,0.1988,0.2018,0.2053,0.2001,0.2061,0.2063,0.2021,0.2085,0.1966,0.203,0.2122,0.2124,0.2125,0,0.179,0.1791,0.1793,0.1812,0.1815,0.1822,0.1858,0.1875,0.1925,0.1949,0.1987,0.2007,0.2059,0.2037,0.2112,0.208,0.21,0.2121,0.2124,0.2076,0.204,0.2001,0.2046,0.1965,0.2142,0.214,0.2139,0,0.1774,0.1782,0.1782,0.1785,0.1807,0.1816,0.1833,0.1881,0.1909,0.1978,0.202,0.2071,0.2111,0.2149,0.2182,0.2157,0.2268,0.2235,0.2216,0.2213,0.2119,0.2104,0.2092,0.2295,0.2295,0.2294,0.2294,0,0.1763,0.1762,0.177,0.1766,0.1775,0.1803,0.183,0.1862,0.1928,0.1971,0.2033,0.2082,0.2144,0.2204,0.222,0.2257,0.2297,0.2242,0.224,0.2131,0.2116,0.2045,0.2015,0.2298,0.2297,0.2296,0.2296,0,0.1743,0.1747,0.1745,0.1759,0.1763,0.1769,0.1814,0.1843,0.1915,0.198,0.201,0.2112,0.2193,0.2251,0.2328,0.2305,0.2267,0.2344,0.221,0.2191,0.2071,0.2047,0.199,0.1925,0.2338,0.2338,0.2337,0,0.1731,0.1726,0.1727,0.1724,0.1726,0.1741,0.1758,0.1823,0.1857,0.1984,0.2013,0.2131,0.2186,0.2293,0.2291,0.2331,0.226,0.2238,0.2162,0.2066,0.204,0.1961,0.1903,0.2062,0.206,0.2058,0.2056,0,0.1708,0.1706,0.1702,0.1695,0.1699,0.1704,0.173,0.1756,0.184,0.1904,0.1983,0.2047,0.2156,0.2147,0.2212,0.2209,0.2098,0.2195,0.213,0.186,0.1738,0.1671,0.2006,0.2037,0.2039,0.204,0.2041,0.2042,0.1688,0.1677,0.1669,0.1658,0.1661,0.165,0.164,0.1678,0.1715,0.178,0.1888,0.1933,0.1988,0.2054,0.2055,0.1954,0.1969,0.1868,0.1863,0.1804,0.1685,0.198,0.1981,0.1982,0.1984,0.1985,0.1986,0,0.1647,0.1639,0.1634,0.1605,0.1585,0.1603,0.1607,0.1585,0.1587,0.1658,0.1712,0.1734,0.1728,0.1763,0.1707,0.1625,0.1543,0.1573,0.1426,0.1399,0.1692,0.1621,0.1499,0.1499,0.15,0.15,0.15,0.15,0.1624,0.1596,0.1588,0.1529,0.1514,0.1454,0.1439,0.1416,0.1428,0.142,0.1416,0.147,0.1522,0.149,0.1392,0.1356,0.1239,0.1171,0.1194,0.1386,0.1412,0.1437,0.1363,0.1189,0.1188,0.0808,0.0805,0.0803]},{"header":{"parameterUnit":"m.s-1","parameterCategory":2,"la1":30.2991,"la2":30.254,"lo1":-89.0895,"lo2":-89.0444,"dy":0.0017,"dx":0.0017,"nx":28,"ny":28,"refTime":"2026-03-02T09:00:00:Z","depth":"0","parameterNumber":3,"parameterNumberName":"V-component_of_CURRENTS"},"data":[0,0,0,0,0,0,0,0,0,0,0,0,0,0,0,0,0,0,0,0,0,0,0,0,0,0,0,0,0,0,0,0,0,0,0,0,0,0,0,0,0,0,0,0,0,0,0,0,0,0,0,0,0,0,0,0,0,0,0.0042,0.0042,0,-0.0006,-0.0007,-0.0008,-0.0049,-0.0049,-0.005,-0.005,-0.0122,-0.0124,-0.0126,0,0,0,0,0,0,0,0,0,0,0,0,0,0.0074,0.0074,0.0042,0.0042,0.0041,-0.0006,-0.0007,-0.0008,-0.0049,-0.0049,-0.005,-0.005,-0.0122,-0.0124,-0.0126,0,0,0,0,0,0,0,0,0,0,0,0,0,0.0045,0.0074,0.0042,0.0016,0.0014,-0.0006,-0.0007,-0.0008,-0.0049,-0.0049,-0.005,-0.005,-0.0121,-0.0124,-0.0126,-0.0132,0,0,-0.0134,-0.0135,0,0,0,0,0,0,0,0,0.0047,0.0044,0.0021,0.0018,0.0015,-0.0021,-0.0022,-0.005,-0.0049,-0.0027,-0.005,-0.0051,-0.0089,-0.0094,-0.0104,-0.0136,-0.0139,-0.0134,-0.0135,-0.0136,-0.0137,0,0,0,0,0,0,0,0.0049,0.0045,0.0021,0.002,0.0017,-0.0001,-0.0006,-0.0028,-0.0057,-0.0029,-0.0032,-0.0034,-0.0091,-0.0102,-0.0107,-0.014,-0.0134,-0.0136,-0.0137,-0.0138,-0.0177,-0.0177,0,0,0,0,0,0,0.006,0.0048,0.0023,0.002,0.0032,-0.0001,-0.0007,-0.001,-0.0056,-0.0063,-0.0034,-0.0036,-0.0098,-0.0104,-0.0109,-0.0105,-0.0136,-0.0139,-0.014,-0.0178,-0.0177,-0.0177,0,0,0,0,0,0,0.0061,0.0058,0.0025,0.0034,0.0029,-0.0001,-0.0005,-0.0011,-0.0018,-0.0059,-0.0067,-0.0035,-0.0098,-0.0106,-0.012,-0.0109,-0.014,-0.0142,-0.0178,-0.0178,-0.0177,-0.0105,0,0,0,0,0,0,0.0062,0.0059,0.006,0.0035,0.0029,0.0025,-0.0004,-0.0011,-0.0019,-0.0022,-0.0062,-0.007,-0.0099,-0.0116,-0.0122,-0.0112,-0.0144,-0.0179,-0.0178,-0.0177,-0.0108,-0.0102,-0.0097,0,0,0,0,0,0.0063,0.0074,0.0061,0.0058,0.0032,0.0026,0.0022,-0.0003,-0.0018,-0.0013,-0.0042,-0.0069,-0.0116,-0.0117,-0.0125,-0.0116,-0.0179,-0.0178,-0.0177,-0.0111,-0.0103,-0.0097,0,0,0,0,0,0,0.0093,0.007,0.0055,0.0058,0.0047,0.002,0.0021,0.0004,-0.0015,-0.002,-0.0061,-0.007,-0.008,-0.0107,-0.0108,-0.0125,-0.0153,-0.0153,-0.0099,-0.0093,-0.0087,-0.0069,-0.0146,0,0,0,0,0,0.0099,0.0097,0.0076,0.0079,0.0076,0.0049,0.0043,0.0028,0.0008,-0.0002,-0.0029,-0.006,-0.0082,-0.0093,-0.0119,-0.0125,-0.014,-0.0125,-0.0119,-0.0114,-0.0105,-0.012,-0.0115,-0.0174,-0.0174,-0.0174,0,0,0.0111,0.0099,0.0097,0.0085,0.0071,0.0077,0.0044,0.0042,0.0046,-0.0006,-0.0009,-0.0041,-0.008,-0.0088,-0.0095,-0.0108,-0.0103,-0.0113,-0.0108,-0.0102,-0.0118,-0.0113,-0.0107,-0.0173,-0.0173,-0.0173,0,0,0.014,0.0124,0.0134,0.0129,0.0116,0.0101,0.0105,0.0083,0.0073,0.0066,0.0029,0.001,-0.0026,-0.0047,-0.0064,-0.0042,-0.0074,-0.0055,-0.0011,-0.0025,-0.002,-0.0016,-0.0013,-0.0009,-0.0051,-0.0051,-0.0051,0,0.0156,0.0163,0.0138,0.0149,0.0151,0.0118,0.0135,0.0122,0.0099,0.0096,0.0075,0.0029,-0.0004,-0.0012,-0.0007,-0.0028,-0.0038,-0.0031,-0.0017,-0.0013,-0.001,-0.0008,-0.0005,-0.0048,-0.0048,-0.0048,-0.0049,0,0.0192,0.0199,0.0207,0.0207,0.0206,0.0217,0.0199,0.0196,0.0176,0.016,0.0148,0.0104,0.0077,0.0062,0.0032,0.0037,0.0024,-0.0007,-0.0029,0.0001,0.0,0.0002,-0.0042,-0.0044,-0.0045,-0.0046,0,0,0.0226,0.0231,0.0235,0.0245,0.0238,0.0244,0.0252,0.0252,0.0263,0.0232,0.0244,0.0198,0.017,0.0149,0.0109,0.0097,0.011,0.0059,0.0056,0.007,0.0093,0.0094,0.0096,0.0079,0.008,0.008,0.009,0,0.0262,0.0297,0.0288,0.0322,0.0338,0.0316,0.0327,0.0321,0.031,0.0315,0.027,0.0262,0.0204,0.0195,0.0173,0.0128,0.0116,0.0111,0.0055,0.0053,0.0057,0.0099,0.0112,0.0123,0.0092,0.0092,0.0092,0,0.0299,0.0317,0.0356,0.0377,0.0383,0.0396,0.0411,0.042,0.0413,0.0405,0.0387,0.0351,0.0331,0.0273,0.0219,0.0219,0.0163,0.0124,0.0123,0.01,0.0058,0.0083,0.0127,0.0062,0.0095,0.0095,0.0095,0,0.0333,0.0366,0.0399,0.0406,0.0422,0.0435,0.0445,0.0446,0.0471,0.0468,0.0491,0.044,0.0434,0.0359,0.0276,0.0247,0.0222,0.0168,0.0119,0.0119,0.0108,0.0106,0.0088,0.0127,0.0127,0.0127,0.0127,0,0.0372,0.0401,0.0418,0.0436,0.0479,0.0475,0.0525,0.0523,0.0548,0.0601,0.0543,0.0575,0.0454,0.042,0.0322,0.0247,0.0256,0.0144,0.0125,0.0134,0.0135,0.0057,0.0017,0.0128,0.0128,0.0127,0.0127,0,0.0404,0.0413,0.0456,0.0483,0.0495,0.0527,0.0583,0.0625,0.0639,0.0711,0.0718,0.0689,0.0651,0.054,0.0431,0.0324,0.0203,0.0201,0.0232,0.0216,0.0092,0.0056,0.0025,-0.0018,0.0149,0.015,0.015,0,0.0424,0.0448,0.0493,0.0526,0.0541,0.0592,0.0633,0.0662,0.072,0.0791,0.0836,0.0819,0.0828,0.0682,0.0492,0.034,0.024,0.0229,0.0164,0.0108,0.0053,0.0025,-0.0012,0.0183,0.0184,0.0184,0.0184,0,0.0467,0.0479,0.0516,0.058,0.0629,0.0696,0.0762,0.0823,0.088,0.0949,0.1032,0.1049,0.0919,0.0767,0.0547,0.0425,0.0193,0.0229,0.0159,0.0078,0.0059,0.0002,0.0164,0.0187,0.0187,0.0187,0.0187,0.0186,0.0502,0.0535,0.0583,0.0645,0.0705,0.0793,0.0862,0.0949,0.1054,0.1162,0.1173,0.1199,0.0986,0.0693,0.0533,0.0234,0.0219,0.0123,0.0087,0.0065,0.0018,0.02,0.0202,0.0202,0.0202,0.0202,0.0202,0,0.0544,0.0584,0.0648,0.0724,0.0798,0.0822,0.0944,0.1021,0.1153,0.1233,0.1307,0.12,0.0965,0.0682,0.0303,0.0117,0.0031,0.0017,-0.0026,-0.0059,0.0095,0.0089,0.0083,0.0083,0.0083,0.0083,0.0083,0.0084,0.057,0.0634,0.0666,0.0788,0.0847,0.0954,0.1029,0.1136,0.1208,0.1291,0.1276,0.1263,0.1046,0.0476,0.0083,-0.0003,-0.0134,-0.0147,-0.0223,-0.0124,-0.0118,-0.0112,-0.0127,-0.0178,-0.0178,-0.0364,-0.0365,-0.0367]}],[{"header":{"parameterUnit":"m.s-1","parameterCategory":2,"la1":30.2991,"la2":30.254,"lo1":-89.0895,"lo2":-89.0444,"dy":0.0017,"dx":0.0017,"nx":28,"ny":28,"refTime":"2026-03-02T09:00:00:Z","depth":"2","parameterNumber":2,"parameterNumberName":"U-component_of_CURRENTS"},"data":[0,0,0,0,0,0,0,0,0,0,0,0,0,0,0,0,0,0,0,0,0,0,0,0,0,0,0,0,0,0,0,0,0,0,0,0,0,0,0,0,0,0,0,0,0,0,0,0,0,0,0,0,0,0,0,0,0,0,0.1557,0.1557,0,0.1572,0.1572,0.1572,0.1583,0.1583,0.1583,0.1583,0.1585,0.1585,0.1585,0,0,0,0,0,0,0,0,0,0,0,0,0,0.1567,0.1566,0.1557,0.1557,0.1557,0.1572,0.1572,0.1572,0.1583,0.1583,0.1583,0.1583,0.1585,0.1585,0.1585,0,0,0,0,0,0,0,0,0,0,0,0,0,0.1571,0.1566,0.1557,0.1563,0.1563,0.1572,0.1572,0.1572,0.1583,0.1583,0.1583,0.1583,0.1585,0.1585,0.1585,0.1587,0,0,0.1585,0.1585,0,0,0,0,0,0,0,0,0.1571,0.1571,0.1562,0.1562,0.1563,0.1574,0.1576,0.1576,0.1583,0.1577,0.1583,0.1583,0.1579,0.158,0.1585,0.1587,0.1587,0.1585,0.1585,0.1585,0.1585,0,0,0,0,0,0,0,0.1571,0.1571,0.1564,0.1562,0.1563,0.1575,0.1575,0.1577,0.1579,0.1578,0.1578,0.1578,0.1579,0.1585,0.1585,0.1587,0.1585,0.1585,0.1585,0.1585,0.1627,0.1628,0,0,0,0,0,0,0.1564,0.157,0.1563,0.1564,0.1565,0.1575,0.1575,0.1572,0.1579,0.158,0.1578,0.1578,0.1584,0.1585,0.1585,0.161,0.1585,0.1585,0.1586,0.1626,0.1628,0.1629,0,0,0,0,0,0,0.1565,0.1564,0.1563,0.1567,0.1567,0.1574,0.157,0.1572,0.1582,0.1579,0.158,0.1586,0.1584,0.1585,0.1596,0.1609,0.1586,0.1586,0.1625,0.1627,0.1628,0.1646,0,0,0,0,0,0,0.1565,0.1564,0.1564,0.1566,0.1567,0.1572,0.157,0.1572,0.1581,0.1582,0.1587,0.1587,0.1584,0.1596,0.1596,0.1609,0.1586,0.1624,0.1626,0.1628,0.1644,0.1648,0.1651,0,0,0,0,0,0.1565,0.1566,0.1563,0.1563,0.1565,0.1572,0.1574,0.158,0.1581,0.1589,0.1595,0.1587,0.1609,0.1596,0.1597,0.161,0.1623,0.1625,0.1628,0.1642,0.1647,0.1651,0,0,0,0,0,0,0.1571,0.1567,0.1564,0.1564,0.1569,0.1574,0.1586,0.1584,0.1595,0.1599,0.1595,0.1596,0.1613,0.1611,0.1598,0.163,0.1616,0.1619,0.1628,0.1632,0.1635,0.1645,0.1586,0,0,0,0,0,0.1571,0.157,0.1569,0.157,0.1577,0.1582,0.1587,0.1588,0.1595,0.1601,0.1602,0.161,0.1623,0.1626,0.1635,0.1647,0.1658,0.1658,0.1662,0.1665,0.1674,0.1705,0.1712,0.1636,0.1636,0.1636,0,0,0.1574,0.157,0.1571,0.1571,0.1581,0.159,0.1587,0.1598,0.1605,0.1598,0.1616,0.1622,0.163,0.1648,0.1656,0.1647,0.1693,0.1668,0.167,0.1678,0.1708,0.1715,0.1722,0.1638,0.1638,0.1638,0,0,0.1578,0.158,0.1582,0.1588,0.1596,0.1602,0.1605,0.1613,0.1622,0.1634,0.1637,0.1654,0.1664,0.1676,0.1683,0.1712,0.1713,0.1714,0.1735,0.1765,0.1771,0.1777,0.18,0.1808,0.1713,0.1713,0.1713,0,0.1583,0.158,0.1586,0.1591,0.16,0.1608,0.1617,0.1629,0.1635,0.1647,0.1644,0.1679,0.1681,0.171,0.1722,0.172,0.1735,0.1714,0.1769,0.1775,0.178,0.1803,0.1811,0.1714,0.1714,0.1714,0.1714,0,0.1582,0.1589,0.1597,0.1605,0.1616,0.1628,0.1642,0.1655,0.1666,0.1675,0.1708,0.1717,0.1739,0.1742,0.1741,0.1782,0.178,0.177,0.1755,0.1789,0.1811,0.1819,0.1716,0.1716,0.1715,0.1715,0,0,0.1577,0.1593,0.1596,0.1604,0.1625,0.1632,0.1658,0.1682,0.1704,0.1718,0.175,0.1773,0.1782,0.1792,0.1794,0.1817,0.1865,0.1812,0.1813,0.183,0.1931,0.1888,0.1892,0.1865,0.1867,0.1868,0.193,0,0.158,0.1585,0.1596,0.1616,0.1628,0.1649,0.1674,0.1696,0.1724,0.1758,0.178,0.1815,0.1801,0.1819,0.184,0.1865,0.1888,0.1849,0.1901,0.1902,0.1855,0.1901,0.1724,0.1762,0.1938,0.1939,0.194,0,0.1577,0.1582,0.1595,0.1623,0.1633,0.1647,0.1693,0.1716,0.1768,0.1793,0.1831,0.1854,0.1899,0.1881,0.1939,0.1916,0.1929,0.1941,0.1943,0.1903,0.1874,0.1758,0.177,0.1954,0.1953,0.1952,0.1951,0,0.1563,0.1584,0.1593,0.1601,0.1634,0.1651,0.1677,0.1727,0.176,0.1825,0.1862,0.1908,0.1947,0.1972,0.1998,0.1977,0.2061,0.2032,0.2004,0.2001,0.1862,0.1843,0.2076,0.2076,0.2075,0.2075,0.2075,0,0.1554,0.1565,0.1587,0.1592,0.1617,0.1646,0.1686,0.1722,0.1785,0.183,0.1882,0.1925,0.1975,0.2023,0.2028,0.2048,0.2087,0.2023,0.202,0.1862,0.1845,0.2017,0.201,0.2078,0.2077,0.2077,0.2076,0,0.1536,0.1548,0.1563,0.1596,0.1611,0.1629,0.1688,0.1718,0.1786,0.1851,0.1878,0.1961,0.2021,0.2063,0.2116,0.209,0.211,0.2104,0.1916,0.1889,0.202,0.2013,0.2079,0.2078,0.2077,0.2076,0.2076,0,0.1526,0.153,0.1563,0.1572,0.1589,0.1622,0.1648,0.1711,0.1753,0.1861,0.1895,0.1982,0.2013,0.208,0.2064,0.2074,0.2115,0.1916,0.1839,0.2033,0.2024,0.2018,0.2012,0.1662,0.1658,0.1655,0.1653,0,0.1512,0.1524,0.1535,0.1558,0.1578,0.1597,0.1647,0.1672,0.1752,0.1804,0.1869,0.19,0.1968,0.1893,0.1921,0.1898,0.1898,0.1852,0.2115,0.1689,0.1646,0.1635,0.1642,0.1624,0.1627,0.1629,0.1631,0.1632,0.1504,0.1508,0.1524,0.154,0.1559,0.1563,0.1559,0.1606,0.1641,0.1682,0.1762,0.1743,0.1766,0.1705,0.1661,0.1633,0.1763,0.1669,0.1677,0.1688,0.1629,0.1587,0.1543,0.1546,0.1548,0.1549,0.1551,0,0.1482,0.1495,0.1509,0.1508,0.1498,0.1533,0.1551,0.1521,0.1518,0.1552,0.1566,0.1427,0.1373,0.1406,0.1314,0.132,0.1286,0.1266,0.1198,0.1228,0.1254,0.1171,0.0965,0.0963,0.0961,0.0959,0,0,0.1466,0.1463,0.1467,0.1442,0.1451,0.1412,0.1403,0.1362,0.1356,0.1286,0.1248,0.1307,0.136,0.114,0.1117,0.1024,0.1117,0.0983,0.1455,0.1405,0.1428,0.1491,0.1398,0,0,0,0,0]},{"header":{"parameterUnit":"m.s-1","parameterCategory":2,"la1":30.2991,"la2":30.254,"lo1":-89.0895,"lo2":-89.0444,"dy":0.0017,"dx":0.0017,"nx":28,"ny":28,"refTime":"2026-03-02T09:00:00:Z","depth":"2","parameterNumber":3,"parameterNumberName":"V-component_of_CURRENTS"},"data":[0,0,0,0,0,0,0,0,0,0,0,0,0,0,0,0,0,0,0,0,0,0,0,0,0,0,0,0,0,0,0,0,0,0,0,0,0,0,0,0,0,0,0,0,0,0,0,0,0,0,0,0,0,0,0,0,0,0,0.0056,0.0056,0,0.003,0.003,0.003,0.0011,0.0011,0.0011,0.0011,-0.0017,-0.0018,-0.0019,0,0,0,0,0,0,0,0,0,0,0,0,0,0.0065,0.0065,0.0056,0.0056,0.0056,0.003,0.003,0.0029,0.0011,0.0011,0.0011,0.0011,-0.0017,-0.0018,-0.0019,0,0,0,0,0,0,0,0,0,0,0,0,0,0.0051,0.0065,0.0056,0.0044,0.0043,0.003,0.003,0.0029,0.0011,0.0011,0.0011,0.0011,-0.0017,-0.0018,-0.0019,-0.0023,0,0,-0.0022,-0.0022,0,0,0,0,0,0,0,0,0.0052,0.0051,0.0046,0.0045,0.0044,0.0025,0.0023,0.0012,0.0011,0.0022,0.0011,0.0011,-0.0003,-0.0005,-0.0011,-0.0025,-0.0026,-0.0022,-0.0023,-0.0023,-0.0023,0,0,0,0,0,0,0,0.0053,0.0052,0.0045,0.0046,0.0044,0.0032,0.003,0.002,0.001,0.0021,0.002,0.0019,-0.0004,-0.001,-0.0012,-0.0026,-0.0022,-0.0023,-0.0024,-0.0024,-0.0045,-0.0045,0,0,0,0,0,0,0.006,0.0053,0.0046,0.0044,0.0049,0.0032,0.0029,0.003,0.001,0.0007,0.0019,0.0018,-0.0008,-0.001,-0.0013,-0.0011,-0.0023,-0.0024,-0.0025,-0.0045,-0.0045,-0.0045,0,0,0,0,0,0,0.006,0.0059,0.0047,0.0049,0.0046,0.0032,0.0032,0.003,0.0024,0.0008,0.0005,0.0016,-0.0008,-0.0011,-0.0018,-0.0013,-0.0025,-0.0025,-0.0046,-0.0045,-0.0045,-0.0013,0,0,0,0,0,0,0.006,0.006,0.0061,0.0049,0.0046,0.0043,0.0033,0.0029,0.0024,0.0022,0.0005,0.0002,-0.0009,-0.0016,-0.0019,-0.0014,-0.0026,-0.0046,-0.0046,-0.0045,-0.0014,-0.0012,-0.001,0,0,0,0,0,0.0061,0.0064,0.0061,0.006,0.0049,0.0043,0.004,0.0029,0.0024,0.0023,0.0012,0.0003,-0.0018,-0.0017,-0.002,-0.0016,-0.0046,-0.0046,-0.0045,-0.0015,-0.0013,-0.001,0,0,0,0,0,0,0.0067,0.0062,0.0059,0.006,0.0054,0.004,0.0038,0.0031,0.0021,0.002,0.0005,0.0001,-0.0004,-0.0015,-0.0014,-0.0023,-0.0034,-0.0034,-0.001,-0.0008,-0.0005,0.0003,-0.0027,0,0,0,0,0,0.007,0.0072,0.0064,0.0065,0.0063,0.0051,0.0046,0.004,0.0031,0.0026,0.0015,0.0002,-0.0006,-0.001,-0.0022,-0.0024,-0.0036,-0.0025,-0.0023,-0.0021,-0.0017,-0.003,-0.0028,-0.0045,-0.0045,-0.0045,0,0,0.0072,0.007,0.007,0.0066,0.006,0.0063,0.0047,0.0044,0.0047,0.0025,0.0024,0.0009,-0.0006,-0.001,-0.0013,-0.0017,-0.0023,-0.0021,-0.0019,-0.0016,-0.0029,-0.0028,-0.0026,-0.0045,-0.0045,-0.0045,0,0,0.008,0.0076,0.0082,0.008,0.0075,0.007,0.0071,0.006,0.0055,0.0051,0.0037,0.0028,0.0011,0.0005,-0.0001,0.0006,-0.0012,-0.0001,0.0019,0.0007,0.0008,0.0009,-0.0004,-0.0005,0.0002,0.0002,0.0002,0,0.0083,0.0091,0.0082,0.0088,0.0091,0.0076,0.0086,0.0079,0.0068,0.0069,0.0054,0.0035,0.002,0.0022,0.0022,0.0012,-0.0,0.0013,0.001,0.0011,0.0012,-0.0003,-0.0003,0.0004,0.0003,0.0003,0.0003,0,0.0097,0.0105,0.0108,0.0114,0.0115,0.012,0.0114,0.0113,0.0104,0.0097,0.0092,0.0068,0.0059,0.005,0.0036,0.0036,0.0024,0.0014,0.0006,0.0016,-0.0,-0.0002,0.0006,0.0005,0.0005,0.0004,0,0,0.0106,0.0116,0.0119,0.013,0.0132,0.0136,0.0144,0.0149,0.0162,0.0137,0.0147,0.0121,0.0106,0.0098,0.0079,0.0064,0.0054,0.0042,0.004,0.0033,0.0024,0.0017,0.0015,0.0042,0.0042,0.0042,0.0011,0,0.0122,0.0144,0.0145,0.0169,0.0181,0.0177,0.0187,0.0189,0.0187,0.0192,0.0163,0.0162,0.0126,0.0123,0.0102,0.0071,0.0051,0.0063,0.0012,0.001,0.0007,0.0014,0.0035,0.0009,0.0009,0.0009,0.0009,0,0.0139,0.0154,0.018,0.0204,0.0209,0.022,0.0244,0.0253,0.0255,0.0251,0.0241,0.0219,0.0199,0.0163,0.0111,0.0119,0.0072,0.004,0.0038,0.0021,0.0002,-0.0001,0.0006,0.0006,0.0007,0.0007,0.0007,0,0.0157,0.0181,0.0206,0.0213,0.0234,0.0246,0.0259,0.0271,0.0294,0.0293,0.0307,0.0271,0.0263,0.02,0.0132,0.012,0.0071,0.0049,-0.0004,-0.0005,-0.0002,-0.0003,0.0004,0.0004,0.0004,0.0004,0.0004,0,0.0176,0.0196,0.0216,0.0231,0.0267,0.0271,0.0312,0.0319,0.0342,0.0384,0.0341,0.0361,0.0271,0.0233,0.0154,0.0078,0.0087,0.0002,-0.0012,0.0009,0.001,-0.0005,-0.0006,0.0003,0.0003,0.0003,0.0003,0,0.0188,0.0201,0.0233,0.0261,0.0277,0.0302,0.0352,0.0386,0.0399,0.0453,0.0456,0.0431,0.0382,0.0291,0.0197,0.0119,0.004,0.0006,0.0036,0.0026,-0.0037,-0.0035,-0.0056,-0.0056,-0.0057,-0.0057,-0.0057,0,0.0194,0.0212,0.0258,0.0288,0.0303,0.0345,0.0384,0.0411,0.0461,0.0504,0.0539,0.0502,0.0488,0.0344,0.0209,0.0075,0.0048,-0.0003,-0.0026,-0.003,-0.0042,-0.004,-0.0038,-0.0012,-0.0011,-0.0011,-0.0011,0,0.0208,0.0223,0.0251,0.0316,0.0361,0.0416,0.0477,0.0524,0.0572,0.0615,0.0661,0.0646,0.0522,0.0395,0.0211,0.0117,0.0019,-0.0006,-0.0011,0.0001,0.0009,-0.0002,-0.0001,-0.001,-0.001,-0.0011,-0.0011,-0.0011,0.0216,0.0237,0.0282,0.0339,0.0405,0.0481,0.0525,0.0602,0.0676,0.074,0.0733,0.0712,0.0574,0.0337,0.0191,0.0032,0.003,-0.0038,-0.0037,-0.0037,-0.0025,-0.0018,-0.004,-0.0041,-0.0041,-0.0041,-0.0041,0,0.0226,0.0254,0.0308,0.0377,0.0447,0.0487,0.0587,0.0626,0.0716,0.0779,0.0801,0.0653,0.0525,0.0367,0.0144,0.0002,-0.0013,-0.0051,-0.0031,-0.0031,-0.0031,-0.0018,-0.0032,-0.0033,-0.0033,-0.0034,0,0,0.023,0.0272,0.0295,0.0395,0.0457,0.054,0.0595,0.0666,0.0724,0.0763,0.0765,0.0739,0.0569,0.0403,0.0224,0.0103,0.0062,0.0069,0.0078,0.0124,0.0125,-0.0006,0.0016,0,0,0,0,0]}],[{"header":{"parameterUnit":"m.s-1","parameterCategory":2,"la1":30.2991,"la2":30.254,"lo1":-89.0895,"lo2":-89.0444,"dy":0.0017,"dx":0.0017,"nx":28,"ny":28,"refTime":"2026-03-02T09:00:00:Z","depth":"4","parameterNumber":2,"parameterNumberName":"U-component_of_CURRENTS"},"data":[0,0,0,0,0,0,0,0,0,0,0,0,0,0,0,0,0,0,0,0,0,0,0,0,0,0,0,0,0,0,0,0,0,0,0,0,0,0,0,0,0,0,0,0,0,0,0,0,0,0,0,0,0,0,0,0,0,0,0.0968,0.0968,0,0.1013,0.1013,0.1014,0.1048,0.1049,0.1049,0.1049,0.1095,0.1095,0.1096,0,0,0,0,0,0,0,0,0,0,0,0,0,0.0907,0.0908,0.0967,0.0968,0.0969,0.1013,0.1013,0.1014,0.1048,0.1049,0.1049,0.105,0.1094,0.1095,0.1096,0,0,0,0,0,0,0,0,0,0,0,0,0,0.094,0.0908,0.0967,0.0992,0.0995,0.1013,0.1013,0.1014,0.1048,0.1049,0.1049,0.105,0.1094,0.1095,0.1096,0.1091,0,0,0.11,0.1101,0,0,0,0,0,0,0,0,0.0938,0.0942,0.0988,0.099,0.0994,0.1027,0.1009,0.104,0.1048,0.1027,0.1049,0.105,0.1072,0.1075,0.1081,0.1093,0.1095,0.11,0.1101,0.1102,0.1102,0,0,0,0,0,0,0,0.0936,0.094,0.0984,0.0988,0.0992,0.1,0.1005,0.1015,0.1044,0.1028,0.1031,0.1038,0.1074,0.1079,0.1082,0.1096,0.11,0.1101,0.1102,0.1103,0.117,0.1171,0,0,0,0,0,0,0.0932,0.0938,0.0983,0.0986,0.0968,0.1,0.1006,0.1014,0.1044,0.105,0.1037,0.1039,0.1077,0.1081,0.1084,0.1134,0.1102,0.1103,0.1103,0.1169,0.1171,0.1172,0,0,0,0,0,0,0.093,0.0936,0.0981,0.0964,0.097,0.1001,0.101,0.1015,0.1042,0.1051,0.1057,0.1062,0.1078,0.1082,0.1113,0.1134,0.1103,0.1104,0.1168,0.117,0.1171,0.12,0,0,0,0,0,0,0.0929,0.0935,0.0948,0.0963,0.0971,0.1006,0.1009,0.1015,0.1044,0.1048,0.1074,0.1077,0.1078,0.1111,0.1114,0.1135,0.1105,0.1167,0.1169,0.1171,0.1197,0.1202,0.1206,0,0,0,0,0,0.0926,0.0938,0.0949,0.0955,0.0986,0.1006,0.1011,0.1034,0.1045,0.106,0.108,0.1078,0.1126,0.1113,0.1116,0.1138,0.1166,0.1168,0.1171,0.1195,0.1201,0.1206,0,0,0,0,0,0,0.0919,0.0943,0.0955,0.0975,0.0997,0.1013,0.1032,0.1045,0.1072,0.1083,0.1089,0.1094,0.113,0.1131,0.1116,0.1164,0.1146,0.1149,0.1164,0.117,0.1174,0.1173,0.1106,0,0,0,0,0,0.0923,0.0941,0.0963,0.0981,0.0994,0.1017,0.1032,0.1049,0.1069,0.1083,0.11,0.112,0.1138,0.1152,0.1167,0.1191,0.1195,0.1209,0.1213,0.1217,0.1219,0.1243,0.125,0.118,0.118,0.118,0,0,0.0925,0.0942,0.0952,0.0981,0.1001,0.1021,0.1028,0.1058,0.1079,0.1083,0.1122,0.1137,0.1149,0.1179,0.1195,0.1185,0.124,0.122,0.1223,0.1223,0.1247,0.1253,0.1259,0.1181,0.1181,0.1181,0,0,0.0931,0.0955,0.0971,0.0991,0.1026,0.1039,0.1052,0.1082,0.1104,0.1137,0.1147,0.1176,0.1204,0.1217,0.1225,0.1262,0.1262,0.1272,0.1293,0.1317,0.1323,0.1328,0.1345,0.1351,0.1273,0.1273,0.1273,0,0.0936,0.0957,0.0979,0.1,0.1019,0.1048,0.1069,0.1093,0.113,0.1149,0.1156,0.1209,0.122,0.1253,0.1268,0.1272,0.1284,0.127,0.1322,0.1327,0.1332,0.1348,0.1355,0.1275,0.1275,0.1275,0.1275,0,0.0947,0.0974,0.0986,0.1021,0.1044,0.1069,0.11,0.1132,0.1161,0.1182,0.123,0.125,0.128,0.1291,0.1291,0.1334,0.1332,0.1324,0.1306,0.134,0.1356,0.1362,0.1277,0.1277,0.1276,0.1276,0,0,0.0933,0.0984,0.0992,0.1012,0.106,0.1076,0.1118,0.1157,0.1188,0.1229,0.1267,0.1303,0.1321,0.1332,0.1343,0.1364,0.1409,0.1363,0.1363,0.1376,0.1465,0.1366,0.1364,0.1414,0.1415,0.1416,0.1463,0,0.0939,0.0976,0.1002,0.1041,0.1062,0.1103,0.1135,0.1177,0.1216,0.126,0.1293,0.1334,0.1335,0.1359,0.1382,0.1405,0.1428,0.1397,0.1434,0.1435,0.1339,0.1368,0.142,0.1468,0.1469,0.147,0.1471,0,0.0938,0.0965,0.1002,0.1053,0.1067,0.1096,0.1155,0.1189,0.1253,0.1287,0.1335,0.1362,0.1411,0.1403,0.1461,0.1445,0.146,0.1472,0.1473,0.1374,0.1347,0.1426,0.1482,0.1481,0.1481,0.148,0.1479,0,0.0908,0.0963,0.0993,0.1011,0.1072,0.1102,0.1139,0.12,0.1235,0.1311,0.1346,0.1402,0.1442,0.1471,0.15,0.149,0.1555,0.1539,0.1464,0.1457,0.152,0.1514,0.1577,0.1577,0.1577,0.1576,0.1576,0,0.0893,0.0919,0.0986,0.1002,0.104,0.1091,0.1139,0.1186,0.1256,0.1293,0.136,0.1394,0.1463,0.1504,0.1519,0.1509,0.1572,0.147,0.1462,0.1531,0.1526,0.1524,0.1518,0.1578,0.1578,0.1577,0.1577,0,0.0851,0.0897,0.0933,0.1004,0.1027,0.1056,0.1134,0.1165,0.1242,0.1295,0.1323,0.1409,0.1458,0.1508,0.1562,0.1523,0.1529,0.151,0.1587,0.1583,0.1412,0.1406,0.1424,0.1421,0.1419,0.1416,0.1415,0,0.083,0.0847,0.0923,0.0948,0.0983,0.1036,0.1068,0.115,0.1182,0.1286,0.1302,0.1383,0.1428,0.1427,0.1485,0.1504,0.1488,0.148,0.1435,0.1405,0.1397,0.1395,0.1393,0.141,0.141,0.1409,0.1408,0,0.0788,0.0825,0.0856,0.0904,0.0945,0.0981,0.1036,0.1051,0.1139,0.1218,0.1248,0.1275,0.1328,0.1365,0.1392,0.1402,0.1476,0.1452,0.1457,0.1414,0.1389,0.1382,0.1384,0.1399,0.14,0.1401,0.1402,0,0.0759,0.0768,0.0815,0.0849,0.0898,0.0915,0.095,0.0985,0.1025,0.1135,0.1141,0.1228,0.1309,0.1312,0.1336,0.1339,0.1316,0.1268,0.1282,0.1293,0.1227,0.1174,0.1114,0,0,0,0,0,0.0726,0.0728,0.0755,0.0785,0.0832,0.0859,0.0923,0.096,0.104,0.1029,0.1082,0.1121,0.1155,0.1204,0.1181,0.1282,0.1324,0.1249,0.1277,0.1349,0.1359,0.1294,0,0,0,0,0,0,0.0702,0.0725,0.073,0.0727,0.0737,0.0773,0.0812,0.0865,0.0865,0.0954,0.0982,0.1048,0.1104,0.1156,0.1158,0.1172,0.1165,0.1305,0.1302,0.1343,0.1352,0.1361,0.1297,0,0,0,0,0]},{"header":{"parameterUnit":"m.s-1","parameterCategory":2,"la1":30.2991,"la2":30.254,"lo1":-89.0895,"lo2":-89.0444,"dy":0.0017,"dx":0.0017,"nx":28,"ny":28,"refTime":"2026-03-02T09:00:00:Z","depth":"4","parameterNumber":3,"parameterNumberName":"V-component_of_CURRENTS"},"data":[0,0,0,0,0,0,0,0,0,0,0,0,0,0,0,0,0,0,0,0,0,0,0,0,0,0,0,0,0,0,0,0,0,0,0,0,0,0,0,0,0,0,0,0,0,0,0,0,0,0,0,0,0,0,0,0,0,0,0.0091,0.0091,0,0.008,0.0079,0.0079,0.0076,0.0076,0.0076,0.0076,0.0066,0.0065,0.0065,0,0,0,0,0,0,0,0,0,0,0,0,0,0.0096,0.0096,0.0091,0.0091,0.0091,0.008,0.0079,0.0079,0.0076,0.0076,0.0076,0.0076,0.0066,0.0065,0.0065,0,0,0,0,0,0,0,0,0,0,0,0,0,0.009,0.0096,0.0091,0.0088,0.0087,0.008,0.0079,0.0079,0.0076,0.0076,0.0076,0.0076,0.0066,0.0065,0.0065,0.006,0,0,0.0063,0.0063,0,0,0,0,0,0,0,0,0.0091,0.009,0.0088,0.0088,0.0087,0.0079,0.0077,0.0073,0.0076,0.008,0.0076,0.0076,0.007,0.0069,0.0067,0.006,0.0059,0.0063,0.0063,0.0063,0.0063,0,0,0,0,0,0,0,0.0091,0.009,0.0087,0.0088,0.0088,0.0082,0.0081,0.0076,0.0075,0.008,0.008,0.0078,0.007,0.0067,0.0067,0.0059,0.0063,0.0063,0.0062,0.0062,0.0055,0.0055,0,0,0,0,0,0,0.0093,0.0091,0.0087,0.0086,0.0089,0.0082,0.0081,0.0082,0.0075,0.0074,0.0078,0.0078,0.0068,0.0067,0.0066,0.0069,0.0063,0.0062,0.0062,0.0054,0.0055,0.0055,0,0,0,0,0,0,0.0093,0.0093,0.0087,0.0088,0.0087,0.0082,0.0082,0.0082,0.008,0.0074,0.0073,0.0078,0.0068,0.0067,0.0066,0.0069,0.0062,0.0062,0.0054,0.0055,0.0055,0.007,0,0,0,0,0,0,0.0093,0.0093,0.0094,0.0088,0.0087,0.0084,0.0082,0.0081,0.0079,0.0079,0.0073,0.0072,0.0068,0.0067,0.0065,0.0068,0.0061,0.0054,0.0054,0.0055,0.0069,0.0071,0.0072,0,0,0,0,0,0.0094,0.0095,0.0094,0.0094,0.0089,0.0084,0.0083,0.008,0.0079,0.0079,0.0077,0.0072,0.0067,0.0066,0.0065,0.0067,0.0054,0.0054,0.0055,0.0069,0.007,0.0072,0,0,0,0,0,0,0.0096,0.0095,0.0094,0.0094,0.009,0.0084,0.0083,0.008,0.0078,0.0079,0.0074,0.0073,0.0072,0.0067,0.0067,0.0065,0.006,0.0059,0.0071,0.0072,0.0073,0.0079,0.0061,0,0,0,0,0,0.0098,0.01,0.0095,0.0096,0.0095,0.0089,0.0087,0.0085,0.0082,0.0081,0.0076,0.0073,0.0071,0.007,0.0066,0.0065,0.0055,0.0066,0.0067,0.0068,0.0072,0.006,0.006,0.0055,0.0055,0.0055,0,0,0.0099,0.0098,0.0099,0.0097,0.0094,0.0096,0.0088,0.0086,0.009,0.008,0.0082,0.0076,0.0072,0.0072,0.0071,0.0069,0.0062,0.0068,0.0069,0.0072,0.006,0.0061,0.0061,0.0056,0.0055,0.0055,0,0,0.0102,0.0102,0.0105,0.0104,0.0102,0.01,0.01,0.0094,0.0094,0.0093,0.0089,0.0086,0.008,0.008,0.0079,0.0084,0.0068,0.008,0.0092,0.008,0.0081,0.0081,0.006,0.0058,0.0081,0.0081,0.0081,0,0.0103,0.0109,0.0105,0.0108,0.0112,0.0103,0.011,0.0107,0.0102,0.0105,0.0097,0.0092,0.0086,0.0092,0.0092,0.0087,0.0073,0.0087,0.0082,0.0082,0.0082,0.006,0.0058,0.0082,0.0082,0.0082,0.0082,0,0.0109,0.0115,0.0117,0.0123,0.0125,0.0128,0.0127,0.0128,0.0125,0.0123,0.0123,0.0112,0.0111,0.0106,0.01,0.0099,0.0086,0.0084,0.0079,0.0083,0.006,0.0058,0.0083,0.0083,0.0083,0.0082,0,0,0.0109,0.0121,0.0122,0.0132,0.0135,0.0139,0.0147,0.0153,0.0164,0.015,0.0159,0.0148,0.0139,0.0137,0.0127,0.0115,0.0097,0.0099,0.0098,0.0079,0.0062,0.0052,0.0048,0.0092,0.0092,0.0092,0.0043,0,0.0117,0.0132,0.0136,0.0154,0.0163,0.0165,0.0175,0.018,0.0181,0.0186,0.0171,0.0174,0.0152,0.0153,0.0136,0.0112,0.0092,0.011,0.006,0.0058,0.005,0.0046,0.0092,0.0041,0.004,0.004,0.004,0,0.0123,0.0135,0.0154,0.0178,0.0182,0.0192,0.0215,0.0224,0.0228,0.0228,0.0224,0.0211,0.0195,0.0175,0.0128,0.0139,0.0101,0.0075,0.0073,0.0058,0.0044,0.0037,0.0035,0.0035,0.0036,0.0036,0.0036,0,0.0129,0.0149,0.0169,0.0175,0.0197,0.021,0.0223,0.0237,0.0254,0.0257,0.0264,0.0241,0.0231,0.0185,0.0128,0.0128,0.007,0.0064,0.0016,0.0014,0.0031,0.0032,0.0025,0.0026,0.0026,0.0026,0.0026,0,0.0137,0.0152,0.0175,0.0185,0.0214,0.0225,0.0257,0.0266,0.0286,0.0307,0.0286,0.0289,0.0233,0.0193,0.0136,0.0068,0.0074,0.0016,0.0003,0.0037,0.0039,0.0029,0.003,0.0024,0.0024,0.0025,0.0025,0,0.0137,0.0152,0.0175,0.0204,0.0218,0.0238,0.0281,0.0304,0.0318,0.0343,0.0345,0.0325,0.0272,0.0207,0.0131,0.0082,0.0017,-0.0012,0.0023,0.0013,-0.0036,-0.0034,-0.0068,-0.0069,-0.007,-0.007,-0.0071,0,0.0137,0.0149,0.0188,0.0208,0.0222,0.0258,0.0286,0.0316,0.0344,0.0363,0.0374,0.0336,0.0309,0.0196,0.0124,0.0013,-0.0005,-0.0043,-0.0036,-0.0036,-0.0045,-0.0041,-0.0038,-0.0072,-0.0072,-0.0072,-0.0072,0,0.0135,0.0149,0.0169,0.0212,0.0245,0.0285,0.0327,0.0351,0.0385,0.0398,0.0396,0.0343,0.0281,0.0195,0.0108,0.0029,-0.0017,-0.005,-0.0049,-0.0043,-0.004,-0.0048,-0.0044,-0.0074,-0.0074,-0.0074,-0.0074,0,0.0132,0.0143,0.0173,0.0211,0.0254,0.0298,0.0325,0.0358,0.0387,0.0411,0.0407,0.0347,0.0317,0.0202,0.0123,0.0045,0.0023,-0.0004,-0.0006,-0.0005,0.0028,0.0042,0.0021,0,0,0,0,0,0.0127,0.014,0.0172,0.0214,0.0258,0.0285,0.0345,0.0372,0.0406,0.0407,0.0411,0.0355,0.0246,0.0204,0.0122,0.0102,0.0002,0.0002,-0.0033,-0.0086,-0.0084,-0.0056,0,0,0,0,0,0,0.0123,0.0147,0.0164,0.0209,0.0237,0.0289,0.0327,0.0356,0.0363,0.0385,0.0331,0.0319,0.0215,0.0283,0.0112,0.009,0.0055,-0.0043,-0.0045,-0.0087,-0.0085,-0.0083,-0.0054,0,0,0,0,0]}]]